Location: Basse Occidentale du Courleau
(48.3833°N, 4.8333°W)
Time: 19:43:39
(UTC+00:00)

ATLAS CENTAUR R/B - Pass Details

Date: 05 July 2020
Orbit: 475 x 672 km, 64.7° (Epoch: 13 July)

Event Time Altitude Azimuth Distance (km) Brightness Sun altitude
Rises 23:29:28 0° 304° (WNW) 2,551 5.5 -17.9°
Reaches altitude 10° 23:32:45 10° 272° (W) 1,650 3.9 -18.0°
Maximum altitude 23:34:12 12° 249° (WSW) 1,523 3.5 -18.1°
Enters shadow 23:34:36 12° 242° (WSW) 1,531 3.4 -18.1°
